Location: Atlantic Beach
(40.5890°N, 73.7290°W)
Time: 12:59:18
(UTC+00:00)

ARGOS - Pass Details

Date: 29 October 2020
Orbit: 819 x 835 km, 98.4° (Epoch: 01 December)

Event Time Altitude Azimuth Distance (km) Brightness Sun altitude
Exits shadow 23:21:55 28° 87° (E) 1,516 3.9 -17.1°
Maximum altitude 23:22:57 30° 67° (ENE) 1,452 3.9 -17.3°
Drops below altitude 10° 23:27:37 10° 8° (N) 2,455 5.5 -18.2°
Sets 23:30:14 0° 358° (N) 3,393 6.4 -18.7°
